DW2738 Weather Reports


Display with metric or nautical units.
time (UTC)temp
F
wind
direction
speed
MPH
gust
MPH
rain 1hr
in
rain 24hr
in
rain mn
in
humidity
%
barometer
mb
20260506172221 70 221 2.0 7.0 0.00 0.00 0.00 70 1008.8
20260506171719 71 170 4.0 6.0 0.00 0.00 0.00 70 1009.1
20260506171216 71 228 2.0 10.0 0.00 0.00 0.00 70 1009.0
20260506170713 71 99 3.0 8.0 0.00 0.00 0.00 71 1008.9
20260506170210 72 227 3.0 5.0 0.00 0.00 0.00 68 1008.9
20260506165708 73 241 4.0 4.0 0.00 0.00 0.00 66 1008.8
20260506165205 72 270 2.0 5.0 0.00 0.00 0.00 65 1009.2
20260506164702 73 208 2.0 9.0 0.00 0.00 0.00 65 1009.0
20260506164159 73 243 3.0 7.0 0.00 0.00 0.00 64 1009.1
20260506163655 73 166 5.0 11.0 0.00 0.00 0.00 63 1009.5
20260506163151 73 149 3.0 5.0 0.00 0.00 0.00 64 1009.5
20260506162647 73 248 8.0 8.0 0.00 0.00 0.00 63 1009.5
20260506162144 73 255 0.0 7.0 0.00 0.00 0.00 64 1009.6
20260506161641 73 274 3.0 8.0 0.00 0.00 0.00 64 1009.7
20260506161138 73 150 4.0 14.0 0.00 0.00 0.00 64 1010.0
20260506160636 72 165 4.0 11.0 0.00 0.00 0.00 64 1010.0
20260506160133 73 195 1.0 7.0 0.00 0.00 0.00 65 1009.9
20260506155632 72 258 3.0 6.0 0.00 0.00 0.00 65 1009.9
20260506155128 72 288 4.0 6.0 0.00 0.00 0.00 65 1010.2
20260506153230 72 256 7.0 10.0 0.00 0.00 0.00 64 1010.2
20260506152727 72 180 0.0 5.0 0.00 0.00 0.00 64 1010.0
20260506152224 72 247 5.0 6.0 0.00 0.00 0.00 62 1010.2
20260506151724 72 292 2.0 9.0 0.00 0.00 0.00 63 1010.3
20260506151219 72 133 6.0 9.0 0.00 0.00 0.00 62 1010.2
20260506150716 72 260 4.0 8.0 0.00 0.00 0.00 62 1010.1
20260506150213 72 255 3.0 9.0 0.00 0.00 0.00 64 1010.0
20260506145710 72 255 3.0 12.0 0.00 0.00 0.00 63 1010.2
20260506145207 72 291 3.0 9.0 0.00 0.00 0.00 61 1010.4
20260506144704 72 282 2.0 12.0 0.00 0.00 0.00 64 1010.3
20260506144201 72 163 4.0 13.0 0.00 0.00 0.00 63 1010.4
20260506143659 71 215 5.0 10.0 0.00 0.00 0.00 64 1010.3
20260506143156 71 227 9.0 9.0 0.00 0.00 0.00 64 1010.5
20260506142655 71 176 2.0 9.0 0.00 0.00 0.00 64 1010.5
20260506142152 72 202 2.0 9.0 0.00 0.00 0.00 64 1010.3
20260506141650 71 241 2.0 13.0 0.00 0.00 0.00 63 1010.5
20260506141148 73 290 5.0 9.0 0.00 0.00 0.00 62 1010.6
20260506140645 71 273 3.0 10.0 0.00 0.00 0.00 65 1010.4
20260506140142 71 197 0.0 13.0 0.00 0.00 0.00 64 1010.5
20260506135639 71 96 0.0 10.0 0.00 0.00 0.00 65 1010.3
20260506135135 70 195 4.0 8.0 0.00 0.00 0.00 65 1010.6
20260506134632 69 192 6.0 7.0 0.00 0.00 0.00 67 1010.4
20260506134127 69 161 2.0 7.0 0.00 0.00 0.00 67 1010.5
20260506133625 69 202 4.0 4.0 0.00 0.00 0.00 66 1010.6
20260506133122 71 204 0.0 5.0 0.00 0.00 0.00 65 1010.5
20260506132619 71 204 0.0 5.0 0.00 0.00 0.00 65 1010.5
20260506132116 71 248 6.0 13.0 0.00 0.00 0.00 63 1010.7
20260506131614 71 0 0.0 6.0 0.00 0.00 0.00 66 1010.8
20260506131110 71 225 3.0 5.0 0.00 0.00 0.00 64 1011.0
20260506130607 72 8 0.0 3.0 0.00 0.00 0.00 64 1010.8
20260506130104 72 233 3.0 6.0 0.00 0.00 0.00 64 1011.0
20260506125603 71 212 4.0 8.0 0.00 0.00 0.00 65 1010.7
20260506125100 71 180 4.0 8.0 0.00 0.00 0.00 65 1010.7
20260506124557 70 340 0.0 9.0 0.00 0.00 0.00 67 1010.9
20260506124055 70 207 4.0 7.0 0.00 0.00 0.00 66 1010.8
20260506123552 70 161 5.0 7.0 0.00 0.00 0.00 66 1010.9
20260506123051 70 177 3.0 5.0 0.00 0.00 0.00 67 1010.9
20260506122547 70 264 1.0 8.0 0.00 0.00 0.00 68 1010.9
20260506122045 70 253 6.0 10.0 0.00 0.00 0.00 68 1011.0
20260506121542 68 173 1.0 10.0 0.00 0.00 0.00 69 1010.8
20260506121038 68 230 3.0 17.0 0.00 0.00 0.00 73 1010.9
20260506120537 67 195 2.0 3.0 0.00 0.00 0.00 72 1010.9
20260506120034 68 249 7.0 8.0 0.00 0.00 0.00 71 1010.9
20260506115532 68 211 5.0 6.0 0.00 0.00 0.00 72 1011.0
20260506115030 67 37 4.0 6.0 0.00 0.00 0.00 74 1011.0
20260506114527 67 180 1.0 7.0 0.00 0.00 0.00 75 1011.0
20260506114026 66 107 4.0 7.0 0.00 0.00 0.00 76 1010.9
20260506113523 66 300 1.0 4.0 0.00 0.00 0.00 77 1010.9
20260506113020 65 225 3.0 4.0 0.00 0.00 0.00 79 1010.8
20260506112516 64 151 1.0 4.0 0.00 0.00 0.00 79 1010.7
20260506112014 64 167 3.0 5.0 0.00 0.00 0.00 80 1010.7
20260506111512 63 133 3.0 4.0 0.00 0.00 0.00 83 1010.9
20260506111009 62 97 3.0 6.0 0.00 0.00 0.00 83 1010.8
20260506110507 62 312 0.0 4.0 0.00 0.00 0.00 85 1011.0
20260506110004 62 114 1.0 3.0 0.00 0.00 0.00 85 1010.8
20260506105459 62 170 3.0 5.0 0.00 0.00 0.00 85 1010.9
20260506104957 61 237 3.0 4.0 0.00 0.00 0.00 86 1010.8
20260506104455 61 195 0.0 4.0 0.00 0.00 0.00 87 1011.0
20260506103953 60 248 0.0 2.0 0.00 0.00 0.00 87 1010.8
20260506103449 60 182 3.0 4.0 0.00 0.00 0.00 88 1011.1
20260506102946 60 270 0.0 4.0 0.00 0.00 0.00 88 1010.9
20260506102444 60 233 3.0 5.0 0.00 0.00 0.00 88 1010.7
20260506101941 60 253 0.0 4.0 0.00 0.00 0.00 88 1010.7
20260506101438 60 173 4.0 4.0 0.00 0.00 0.00 88 1010.7
20260506100935 60 160 1.0 6.0 0.00 0.00 0.00 89 1010.6
20260506100433 60 162 2.0 2.0 0.00 0.00 0.00 89 1010.7
20260506095931 60 198 2.0 5.0 0.00 0.00 0.00 89 1010.8
20260506095429 60 246 0.0 3.0 0.00 0.00 0.00 90 1010.7
20260506094925 60 237 2.0 7.0 0.00 0.00 0.00 90 1010.5
20260506094424 59 249 4.0 4.0 0.00 0.00 0.00 90 1010.7
20260506093921 60 169 2.0 5.0 0.00 0.00 0.00 90 1010.6
20260506093419 60 180 3.0 5.0 0.00 0.00 0.00 90 1010.6
20260506092917 60 125 2.0 4.0 0.00 0.00 0.00 90 1010.5
20260506092415 60 121 3.0 3.0 0.00 0.00 0.00 91 1010.8
20260506091911 60 114 1.0 4.0 0.00 0.00 0.00 91 1010.7
20260506091409 60 146 2.0 2.0 0.00 0.00 0.00 91 1010.7
20260506090905 60 186 1.0 2.0 0.00 0.00 0.00 90 1010.8
20260506090403 60 254 1.0 2.0 0.00 0.00 0.00 90 1010.7
20260506085900 60 187 0.0 5.0 0.00 0.00 0.00 90 1010.8
20260506085356 60 180 0.0 3.0 0.00 0.00 0.00 90 1010.9
20260506084853 60 201 2.0 3.0 0.00 0.00 0.00 90 1011.0
20260506084349 60 164 0.0 3.0 0.00 0.00 0.00 91 1010.8
20260506083846 60 270 0.0 2.0 0.00 0.00 0.00 91 1010.9
20260506083344 60 243 1.0 4.0 0.00 0.00 0.00 90 1011.0
20260506082841 60 185 1.0 4.0 0.00 0.00 0.00 90 1011.2
20260506082337 60 157 1.0 3.0 0.00 0.00 0.00 91 1011.0
20260506081833 59 124 0.0 3.0 0.00 0.00 0.00 91 1010.9
20260506081332 60 63 0.0 4.0 0.00 0.00 0.00 91 1011.0
20260506080829 60 251 2.0 5.0 0.00 0.00 0.00 90 1010.9
20260506080325 60 138 3.0 3.0 0.00 0.00 0.00 91 1010.8
20260506073310 60 232 2.0 3.0 0.00 0.00 0.00 90 1011.0
20260506072806 60 261 0.0 3.0 0.00 0.00 0.00 90 1011.3
20260506072305 60 185 2.0 4.0 0.00 0.00 0.00 90 1011.2
20260506071801 60 121 0.0 4.0 0.00 0.00 0.00 89 1011.1
20260506071259 60 188 0.0 4.0 0.00 0.00 0.00 89 1011.2
20260506070756 61 216 2.0 2.0 0.00 0.00 0.00 89 1011.1
20260506070253 61 202 0.0 4.0 0.00 0.00 0.00 89 1011.3
20260506062230 62 219 2.0 3.0 0.00 0.00 0.00 86 1011.3
20260506061726 62 165 0.0 3.0 0.00 0.00 0.00 85 1011.2
20260506061224 63 286 2.0 3.0 0.00 0.00 0.00 84 1011.2
20260506060722 63 202 5.0 7.0 0.00 0.00 0.00 85 1011.3
20260506060219 63 233 2.0 4.0 0.00 0.00 0.00 84 1011.2
20260506051151 63 109 3.0 4.0 0.00 0.00 0.00 84 1011.8
20260506050649 63 203 2.0 9.0 0.00 0.00 0.00 84 1011.7
20260506050146 63 140 2.0 3.0 0.00 0.00 0.00 83 1011.8
20260506044637 63 114 0.0 8.0 0.00 0.00 0.00 83 1011.9
20260506044134 63 180 2.0 4.0 0.00 0.00 0.00 83 1011.6
20260506043631 63 180 0.0 4.0 0.00 0.00 0.00 83 1011.9
20260506043129 63 180 2.0 3.0 0.00 0.00 0.00 83 1011.7
20260506042627 63 109 3.0 5.0 0.00 0.00 0.00 83 1011.7
20260506042125 63 127 4.0 4.0 0.00 0.00 0.00 83 1011.7
20260506041624 63 201 3.0 3.0 0.00 0.00 0.00 82 1011.7
20260506041120 64 180 0.0 6.0 0.00 0.00 0.00 82 1011.7
20260506040618 64 129 5.0 5.0 0.00 0.00 0.00 81 1011.5
20260506040114 64 135 3.0 5.0 0.00 0.00 0.00 81 1011.7
20260506035611 64 276 3.0 5.0 0.00 0.00 0.00 80 1011.9
20260506035108 64 209 3.0 6.0 0.00 0.00 0.00 80 1011.5
20260506034605 64 165 0.0 3.0 0.00 0.00 0.00 79 1011.6
20260506034102 65 168 1.0 3.0 0.00 0.00 0.00 79 1011.5
20260506033559 65 180 0.0 4.0 0.00 0.00 0.00 78 1011.7
20260506033056 65 139 2.0 3.0 0.00 0.00 0.00 78 1011.7
20260506032553 65 180 1.0 5.0 0.00 0.00 0.00 78 1011.4
20260506032050 65 261 3.0 5.0 0.00 0.00 0.00 78 1011.9
20260506031548 65 172 0.0 4.0 0.00 0.00 0.00 77 1011.7
20260506031044 65 190 0.0 4.0 0.00 0.00 0.00 78 1011.9
20260506030543 65 180 2.0 2.0 0.00 0.00 0.00 78 1011.6
20260506030039 65 193 3.0 4.0 0.00 0.00 0.00 77 1011.8
20260506025536 65 191 3.0 5.0 0.00 0.00 0.00 77 1011.7
20260506025032 65 152 2.0 3.0 0.00 0.00 0.00 78 1011.7
20260506024530 65 265 3.0 5.0 0.00 0.00 0.00 78 1011.7
20260506024026 65 176 2.0 4.0 0.00 0.00 0.00 77 1011.6
20260506023522 66 176 0.0 3.0 0.00 0.00 0.00 77 1011.9
20260506023020 66 220 2.0 6.0 0.00 0.00 0.00 76 1011.8
20260506022517 66 109 2.0 7.0 0.00 0.00 0.00 76 1011.6
20260506022015 66 222 3.0 5.0 0.00 0.00 0.00 76 1011.8
20260506021512 66 155 3.0 7.0 0.00 0.00 0.00 76 1011.8
20260506021009 66 180 2.0 6.0 0.00 0.00 0.00 76 1011.8
20260506020507 66 194 2.0 4.0 0.00 0.00 0.00 76 1011.6
20260506020004 66 163 3.0 4.0 0.00 0.00 0.00 76 1012.0
20260506015501 66 213 2.0 3.0 0.00 0.00 0.00 76 1011.6
20260506014958 66 132 2.0 5.0 0.00 0.00 0.00 75 1011.9
20260506014455 65 180 1.0 6.0 0.00 0.00 0.00 76 1011.7
20260506013951 65 201 2.0 5.0 0.00 0.00 0.00 77 1011.5
20260506013449 65 184 2.0 5.0 0.00 0.00 0.00 77 1011.5
20260506012945 65 201 0.0 4.0 0.00 0.00 0.00 76 1011.6
20260506012442 65 200 1.0 4.0 0.00 0.00 0.00 76 1011.7
20260506011939 66 174 4.0 4.0 0.00 0.00 0.00 76 1011.6
20260506011436 66 245 0.0 3.0 0.00 0.00 0.00 75 1011.4
20260506010933 66 134 0.0 6.0 0.00 0.00 0.00 75 1011.4
20260506010432 66 157 0.0 9.0 0.00 0.00 0.00 74 1011.4
20260506005927 66 237 3.0 4.0 0.00 0.00 0.00 73 1011.4
20260506005426 66 270 2.0 5.0 0.00 0.00 0.00 73 1011.3
20260506004920 66 198 3.0 7.0 0.00 0.00 0.00 71 1011.2
20260506004419 67 159 3.0 9.0 0.00 0.00 0.00 70 1011.2
20260506003914 67 252 4.0 6.0 0.00 0.00 0.00 69 1011.0
20260506003411 67 171 3.0 9.0 0.00 0.00 0.00 68 1011.1
20260506002908 67 132 4.0 8.0 0.00 0.00 0.00 68 1011.1
20260506002404 67 223 4.0 7.0 0.00 0.00 0.00 69 1011.0
20260506001859 67 237 2.0 5.0 0.00 0.00 0.00 69 1011.0
20260506001356 67 151 0.0 6.0 0.00 0.00 0.00 68 1010.8
20260506000853 68 121 2.0 6.0 0.00 0.00 0.00 67 1011.0
20260506000353 68 175 5.0 10.0 0.00 0.00 0.00 67 1010.8
20260505235848 68 234 1.0 3.0 0.00 0.00 0.00 67 1010.8
20260505235345 68 240 1.0 8.0 0.00 0.00 0.00 66 1010.7
20260505234842 69 145 4.0 5.0 0.00 0.00 0.00 65 1010.9
20260505234340 69 206 1.0 4.0 0.00 0.00 0.00 64 1010.8
20260505233836 70 170 3.0 4.0 0.00 0.00 0.00 63 1010.5
20260505233335 70 165 0.0 6.0 0.00 0.00 0.00 62 1010.7
20260505232832 71 267 3.0 5.0 0.00 0.00 0.00 61 1010.5
20260505232330 71 208 2.0 7.0 0.00 0.00 0.00 61 1010.6
20260505231826 71 223 5.0 7.0 0.00 0.00 0.00 60 1010.4
20260505231324 71 125 2.0 3.0 0.00 0.00 0.00 61 1010.5
20260505230822 72 234 0.0 6.0 0.00 0.00 0.00 60 1010.5
20260505230318 72 230 4.0 7.0 0.00 0.00 0.00 59 1010.3
20260505225815 72 190 4.0 6.0 0.00 0.00 0.00 59 1010.4
20260505225312 72 325 3.0 6.0 0.00 0.00 0.00 60 1010.4
20260505224807 73 251 3.0 4.0 0.00 0.00 0.00 59 1010.3
20260505224306 73 171 0.0 7.0 0.00 0.00 0.00 58 1010.4
20260505223802 73 227 5.0 6.0 0.00 0.00 0.00 58 1010.3
20260505223259 74 119 6.0 7.0 0.00 0.00 0.00 56 1010.3
20260505222755 75 114 3.0 6.0 0.00 0.00 0.00 55 1010.0
20260505222251 75 127 3.0 5.0 0.00 0.00 0.00 54 1010.1
20260505221748 75 175 3.0 4.0 0.00 0.00 0.00 54 1010.1
20260505221245 75 185 6.0 11.0 0.00 0.00 0.00 54 1010.2
20260505220742 76 172 0.0 4.0 0.00 0.00 0.00 55 1010.1
20260505220239 76 126 4.0 8.0 0.00 0.00 0.00 54 1010.2
20260505215737 76 213 3.0 9.0 0.00 0.00 0.00 53 1010.2
20260505215235 76 113 3.0 7.0 0.00 0.00 0.00 53 1010.1
20260505214733 77 208 3.0 4.0 0.00 0.00 0.00 52 1009.8
20260505214229 77 177 3.0 10.0 0.00 0.00 0.00 51 1009.7
20260505213726 78 238 3.0 5.0 0.00 0.00 0.00 49 1009.7
20260505213224 77 170 3.0 5.0 0.00 0.00 0.00 51 1009.5
20260505212714 78 233 2.0 6.0 0.00 0.00 0.00 51 1009.3
20260505212212 78 183 2.0 11.0 0.00 0.00 0.00 50 1009.2
20260505211708 78 151 1.0 6.0 0.00 0.00 0.00 51 1009.4
20260505211206 78 125 2.0 8.0 0.00 0.00 0.00 51 1009.4
20260505210702 78 179 5.0 6.0 0.00 0.00 0.00 51 1009.5
20260505210159 78 128 4.0 4.0 0.00 0.00 0.00 51 1009.2
20260505205656 78 124 6.0 9.0 0.00 0.00 0.00 50 1009.2
20260505205154 79 209 3.0 7.0 0.00 0.00 0.00 49 1009.2
20260505204651 79 345 1.0 8.0 0.00 0.00 0.00 50 1009.0
20260505204149 80 180 0.0 10.0 0.00 0.00 0.00 48 1009.3
20260505203646 81 235 4.0 6.0 0.00 0.00 0.00 48 1009.5
20260505203142 81 206 10.0 10.0 0.00 0.00 0.00 48 1009.3
20260505202638 81 159 2.0 10.0 0.00 0.00 0.00 48 1009.1
20260505202134 82 142 6.0 9.0 0.00 0.00 0.00 47 1009.2
20260505201631 82 123 2.0 7.0 0.00 0.00 0.00 49 1009.6
20260505201129 82 157 2.0 5.0 0.00 0.00 0.00 46 1009.3
20260505200627 82 166 3.0 5.0 0.00 0.00 0.00 46 1009.4
20260505200124 84 154 1.0 8.0 0.00 0.00 0.00 42 1009.5
20260505195620 85 262 1.0 5.0 0.00 0.00 0.00 41 1009.3
20260505195117 83 76 5.0 7.0 0.00 0.00 0.00 39 1009.4
20260505194614 84 237 4.0 14.0 0.00 0.00 0.00 37 1009.2
20260505194110 84 239 3.0 11.0 0.00 0.00 0.00 38 1009.4
20260505193607 84 143 5.0 14.0 0.00 0.00 0.00 38 1009.6
20260505193104 84 148 2.0 10.0 0.00 0.00 0.00 39 1009.4
20260505192603 84 262 3.0 5.0 0.00 0.00 0.00 40 1009.6
20260505192059 84 293 2.0 9.0 0.00 0.00 0.00 38 1009.7
20260505191557 83 252 7.0 11.0 0.00 0.00 0.00 37 1009.8
20260505191055 84 162 3.0 7.0 0.00 0.00 0.00 39 1009.8
20260505190550 85 252 0.0 6.0 0.00 0.00 0.00 38 1009.9
20260505190046 84 245 4.0 7.0 0.00 0.00 0.00 38 1010.1
20260505185543 84 153 3.0 11.0 0.00 0.00 0.00 40 1010.3
20260505185039 84 240 4.0 7.0 0.00 0.00 0.00 39 1010.0
20260505184536 84 235 0.0 7.0 0.00 0.00 0.00 40 1010.2
20260505184033 84 216 5.0 7.0 0.00 0.00 0.00 39 1010.1
20260505183530 83 237 7.0 7.0 0.00 0.00 0.00 41 1010.0
20260505183027 84 239 3.0 9.0 0.00 0.00 0.00 42 1010.1
20260505182523 83 174 4.0 5.0 0.00 0.00 0.00 41 1010.2
20260505182020 84 270 2.0 9.0 0.00 0.00 0.00 41 1010.3
20260505181517 82 212 2.0 7.0 0.00 0.00 0.00 43 1010.5
20260505181014 82 101 5.0 7.0 0.00 0.00 0.00 43 1010.6
20260505180509 82 270 5.0 9.0 0.00 0.00 0.00 43 1010.6
20260505180008 82 202 2.0 6.0 0.00 0.00 0.00 45 1010.3
20260505175503 82 239 2.0 6.0 0.00 0.00 0.00 45 1010.6
20260505175000 83 101 2.0 9.0 0.00 0.00 0.00 42 1010.9
20260505174457 83 219 3.0 6.0 0.00 0.00 0.00 43 1010.9
20260505173953 82 247 4.0 11.0 0.00 0.00 0.00 44 1010.8
20260505173450 82 140 2.0 9.0 0.00 0.00 0.00 45 1010.9
20260505172947 82 270 3.0 8.0 0.00 0.00 0.00 43 1010.8